Location: B?dimalle
(17.1788°N, 80.5377°E)
Time: 05:11:38
(UTC+00:00)

Vanguard 1 - Pass Details

Date: 19 February 2026
Orbit: 653 x 3818 km, 34.2° (Epoch: 14 March)

Event Time Altitude Azimuth Distance (km) Brightness Sun altitude
Rises 18:26:06 0° 289° (WNW) 7,805 14.8 -81.3°
Reaches altitude 10° 18:32:11 10° 281° (WNW) 6,899 14.3 -82.3°
Enters shadow 18:37:37 19° 272° (W) 6,140 14.0 -83.0°
